weather.gov     
National Weather Service

Regional Weather Roundup
NWS Homepage
This page is being discontinued on March 12, 2014.
The same data is available at this site. Please update your bookmarks.
Thank you, and we apologize for the inconvenience.
Please send an email to SR-SRH.Webmaster@noaa.gov with any concerns.


Current Version
Previous Version:    01  02  03  04  05  06  07  08  09  10  11  12  13  14  15  16  17  18  19  20  21  22  23  24  25  26  27  
[Printable]
489
ASUS44 KBMX 011110
RWRAL

ALABAMA REGIONAL WEATHER ROUNDUP
NATIONAL WEATHER SERVICE BIRMINGHAM AL
600 AM CDT MON SEP 01 2014

NOTE: "FAIR" INDICATES FEW OR NO CLOUDS BELOW 12,000 FEET
WITH NO SIGNIFICANT WEATHER AND/OR OBSTRUCTIONS TO VISIBILITY.

THE REMARK "TC" DENOTES TEMPERATURE IN DEGREES CELSIUS.

ALZ001>011-014-016>018-020-011200-
NORTH ALABAMA

CITY           SKY/WX    TMP DP  RH WIND       PRES   REMARKS
MUSCLE SHOALS  MOCLDY    73  70  90 CALM      30.08S
HUNTSVILLE     MOCLDY    74  70  87 E3        30.09R
DECATUR        CLOUDY    72  71  97 MISG      30.09R
HALEYVILLE     FAIR      71  71 100 CALM      30.13R
GADSDEN        CLOUDY    72  68  88 CALM      30.10S
$$

ALZ012-013-022-023-030>036-040>044-011200-
WEST CENTRAL ALABAMA

CITY           SKY/WX    TMP DP  RH WIND       PRES   REMARKS
TUSCALOOSA     CLOUDY    75  71  87 CALM      30.08R
$$

ALZ015-024>027-033>036-040>044-011200-
CENTRAL ALABAMA

CITY           SKY/WX    TMP DP  RH WIND       PRES   REMARKS
BIRMINGHAM     CLOUDY    75  70  84 SE3       30.12R
MONTGOMERY     CLEAR     74  70  87 CALM      30.10R
SHELBY CO ARPT PTCLDY    72  68  87 CALM      30.10R
MAXWELL AFB    PTCLDY    73  73 100 CALM      30.09S
GREENVILLE     NOT AVBL
$$

ALZ019-021-028-029-037-038-045>048-011200-
EAST CENTRAL ALABAMA

CITY           SKY/WX    TMP DP  RH WIND       PRES   REMARKS
ANNISTON       CLOUDY    72  69  90 CALM      30.11S
ALEXANDER CITY MOCLDY    76  71  85 CALM      30.12R
AUBURN         MOCLDY    73  66  78 CALM      30.15S
$$

ALZ051>064-011200-
SOUTHWEST ALABAMA

CITY           SKY/WX    TMP DP  RH WIND       PRES   REMARKS
MOBILE         PTCLDY    75  74  96 NE3       30.06R
BROOKLEY FIELD CLEAR     81  78  91 E8        30.06R
EVERGREEN      PTCLDY    72  70  93 CALM      30.09R
$$

ALZ049-050-065>069-011200-
SOUTHEAST ALABAMA

CITY           SKY/WX    TMP DP  RH WIND       PRES   REMARKS
DOTHAN         PTCLDY    72  69  90 N3        30.13R
OZARK          PTCLDY    71  69  94 NE5       30.09R
TROY           CLEAR     70  68  93 CALM      30.10R
EUFAULA        FAIR      72  70  93 CALM      30.10R
$$




U.S. Dept. of Commerce
NOAA National Weather Service
1325 East West Highway
Silver Spring, MD 20910
E-mail: w-nws.webmaster@noaa.gov
Page last modified: May 16, 2007
NATIONAL WEATHER SERVICE: for Safety, for Work, for Fun - FOR LIFE